Date String (YYYY-MM-DD hh:mm:ss) UTC,Instrument flags,Ambient pressure (hPa),Sample flow (lpm),Bypass flow (lpm),Sample temperature (°C),Ambient temperature (°C),ASC tube jacket temperature (°C),LED temperature (°C),Box temperature (°C),Sample RH (%),Span deviation,Mass concentration (μg/m³),Mass concentration (μg/m³),Mass concentration (μg/m³)
DateTimeUTC,F1_M11,P_M11,Q1_M11,Q2_M11,T1_M11,T2_M11,T3_M11,T4_M11,T5_M11,U1_M11,ZSPAN_M11,X0_M11,X2_M11,X1_M11
2023-03-05 14:00:00,,0814.8,5.05,0.00,22.0,23.0,00.0,30.7,24.0,14.5,-000.8,0015.04,0010.23,0009.34
2023-03-05 14:01:00,,0814.8,5.00,0.00,22.1,22.7,00.0,30.7,24.1,14.4,-000.8,0015.15,0010.36,0009.43
2023-03-05 14:02:00,,0814.8,5.04,0.00,22.1,22.1,00.0,30.8,23.9,14.4,-000.8,0015.12,0010.43,0009.50
2023-03-05 14:03:00,,0814.8,5.00,0.00,22.1,21.5,00.0,30.8,23.8,14.4,-000.9,0015.10,0010.53,0009.58
2023-03-05 14:04:00,,0814.9,5.01,0.00,22.1,21.1,00.0,30.8,23.7,14.4,-001.1,0015.07,0010.63,0009.66
2023-03-05 14:05:00,,0814.8,5.00,0.00,22.0,20.7,00.0,30.8,23.7,14.4,-000.8,0015.08,0010.76,0009.76
2023-03-05 14:06:00,,0814.8,5.00,0.00,22.0,20.5,00.0,30.8,23.6,14.3,-000.7,0015.81,0010.92,0009.90
2023-03-05 14:07:00,,0814.8,5.01,0.00,22.0,20.3,00.0,30.8,23.6,14.4,-000.5,0016.06,0011.05,0010.02
2023-03-05 14:08:00,,0814.8,4.98,0.00,21.9,20.1,00.0,30.8,23.5,14.4,-000.2,0016.11,0011.14,0010.13
2023-03-05 14:09:00,,0814.9,5.01,0.00,21.9,20.0,00.0,30.7,23.4,14.3,-000.3,0016.31,0011.28,0010.26
2023-03-05 14:10:00,,0814.9,4.99,0.00,21.9,19.9,00.0,30.7,23.4,14.4,-000.4,0016.47,0011.37,0010.37
2023-03-05 14:11:00,,0814.9,5.00,0.00,21.8,19.8,00.0,30.7,23.4,14.4,-000.2,0016.62,0011.43,0010.43
2023-03-05 14:12:00,,0814.9,5.01,0.00,21.8,20.0,00.0,30.7,23.4,14.5,-000.5,0017.23,0011.50,0010.47
2023-03-05 14:13:00,,0814.9,4.98,0.00,21.9,21.5,00.0,30.7,23.7,14.5,-000.6,0017.36,0011.53,0010.51
2023-03-05 14:14:00,,0814.9,4.99,0.00,22.0,22.5,00.0,30.7,23.9,14.4,-000.5,0018.14,0011.59,0010.56
2023-03-05 14:15:00,,0815.1,4.98,0.00,22.1,22.2,00.0,30.7,23.9,14.3,-000.3,0018.29,0011.59,0010.59
2023-03-05 14:16:00,,0815.1,5.00,0.00,22.1,21.7,00.0,30.7,23.8,14.2,-000.4,0018.30,0011.62,0010.64
2023-03-05 14:17:00,,0815.0,4.99,0.00,22.0,21.2,00.0,30.8,23.7,14.2,-000.4,0018.36,0011.64,0010.65
2023-03-05 14:18:00,,0815.0,5.00,0.00,22.0,20.8,00.0,30.7,23.6,14.3,-000.3,0019.67,0011.68,0010.66
2023-03-05 14:19:00,,0815.0,5.01,0.00,22.0,20.5,00.0,30.7,23.5,14.3,-000.4,0019.90,0011.73,0010.68
2023-03-05 14:20:00,,0815.0,5.01,0.00,21.9,20.3,00.0,30.7,23.5,14.4,-000.4,0020.03,0011.71,0010.64
2023-03-05 14:21:00,,0815.2,5.00,0.00,21.9,20.1,00.0,30.7,23.4,14.3,-000.6,0019.95,0011.67,0010.61
2023-03-05 14:22:00,,0815.0,5.00,0.00,21.9,20.0,00.0,30.7,23.4,14.3,-000.8,0019.97,0011.65,0010.57
2023-03-05 14:23:00,,0815.2,5.00,0.00,21.8,19.8,00.0,30.7,23.4,14.3,-000.6,0019.64,0011.60,0010.55
2023-03-05 14:24:00,,0815.0,5.01,0.00,21.8,19.8,00.0,30.7,23.4,14.4,-000.5,0019.83,0011.55,0010.51
2023-03-05 14:25:00,,0815.0,5.00,0.00,21.8,19.8,00.0,30.6,23.4,14.3,-000.6,0019.11,0011.52,0010.49
2023-03-05 14:26:00,,0815.0,5.00,0.00,21.8,21.0,00.0,30.6,23.6,14.2,-000.7,0019.01,0011.53,0010.44
2023-03-05 14:27:00,,0815.2,5.01,0.00,21.9,22.5,00.0,30.6,23.9,14.3,-000.8,0018.94,0011.47,0010.39
2023-03-05 14:28:00,,0815.1,4.99,0.00,22.0,22.7,00.0,30.7,24.0,14.1,-000.7,0018.50,0011.41,0010.33
2023-03-05 14:29:00,,0815.1,4.99,0.00,22.1,22.1,00.0,30.7,23.9,14.2,-000.6,0017.23,0011.35,0010.29
2023-03-05 14:30:00,,0815.1,4.99,0.00,22.1,21.6,00.0,30.7,23.8,14.1,-000.7,0016.99,0011.29,0010.24
2023-03-05 14:31:00,,0815.1,4.99,0.00,22.0,21.2,00.0,30.7,23.8,14.1,-000.5,0016.91,0011.23,0010.20
2023-03-05 14:32:00,,0815.1,4.98,0.00,22.0,20.9,00.0,30.7,23.7,14.0,-000.3,0017.28,0011.21,0010.17
2023-03-05 14:33:00,,0815.2,5.01,0.00,22.0,20.6,00.0,30.7,23.6,14.1,-000.3,0017.56,0011.15,0010.14
2023-03-05 14:34:00,,0815.2,4.98,0.00,22.0,20.5,00.0,30.7,23.6,14.1,-000.4,0017.46,0011.09,0010.10
2023-03-05 14:35:00,,0815.3,4.99,0.00,22.0,20.4,00.0,30.7,23.6,14.1,-000.4,0017.10,0011.06,0010.07
2023-03-05 14:36:00,,0815.2,4.99,0.00,22.0,20.3,00.0,30.7,23.6,14.0,-000.5,0017.09,0011.03,0010.02
2023-03-05 14:37:00,,0815.3,5.00,0.00,21.9,20.1,00.0,30.7,23.6,14.1,-000.2,0016.92,0010.97,0010.00
2023-03-05 14:38:00,,0815.3,5.00,0.00,21.9,20.1,00.0,30.7,23.5,14.4,-000.2,0016.82,0010.93,0009.98
2023-03-05 14:39:00,,0815.2,5.00,0.00,21.9,20.1,00.0,30.7,23.5,14.1,-000.0,0016.89,0010.87,0009.95
2023-03-05 14:40:00,,0815.2,5.00,0.00,21.9,20.1,00.0,30.7,23.5,14.0,-000.2,0017.06,0010.86,0009.89
2023-03-05 14:41:00,,0815.3,5.00,0.00,21.9,20.0,00.0,30.7,23.5,14.2,-000.2,0017.64,0010.85,0009.84
2023-03-05 14:42:00,,0815.2,5.00,0.00,21.8,20.4,00.0,30.7,23.5,13.8,-000.3,0017.42,0010.81,0009.78
2023-03-05 14:43:00,,0815.3,5.01,0.00,21.9,21.9,00.0,30.7,23.8,13.6,-000.3,0017.01,0010.72,0009.68
2023-03-05 14:44:00,,0815.3,4.99,0.00,22.1,22.9,00.0,30.7,24.1,13.6,-000.3,0016.79,0010.67,0009.56
2023-03-05 14:45:00,,0815.3,5.00,0.00,22.1,22.4,00.0,30.7,24.1,13.4,-000.1,0017.02,0010.59,0009.45
2023-03-05 14:46:00,,0815.2,4.98,0.00,22.1,21.9,00.0,30.8,23.9,13.5,0000.2,0017.73,0010.58,0009.34
2023-03-05 14:47:00,,0815.3,5.00,0.00,22.1,21.4,00.0,30.8,23.8,13.4,0000.6,0018.22,0010.55,0009.24
2023-03-05 14:48:00,,0815.2,5.01,0.00,22.1,21.0,00.0,30.8,23.8,13.5,0000.4,0018.78,0010.55,0009.14
2023-03-05 14:49:00,,0815.2,5.00,0.00,22.1,20.8,00.0,30.8,23.7,13.4,0000.5,0019.18,0010.52,0009.02
2023-03-05 14:50:00,,0815.2,4.99,0.00,22.0,20.6,00.0,30.8,23.7,13.6,0000.1,0019.56,0010.47,0008.89
2023-03-05 14:51:00,,0815.2,5.00,0.00,22.0,20.5,00.0,30.8,23.7,13.8,-000.2,0019.29,0010.40,0008.78
2023-03-05 14:52:00,,0815.3,5.00,0.00,22.0,20.4,00.0,30.8,23.6,13.6,-000.2,0018.64,0010.27,0008.61
2023-03-05 14:53:00,,0815.3,5.01,0.00,22.0,20.3,00.0,30.8,23.6,13.6,-000.2,0018.45,0010.13,0008.46
2023-03-05 14:54:00,,0815.4,5.01,0.00,22.0,20.3,00.0,30.8,23.6,14.1,-000.0,0018.86,0010.02,0008.35
2023-03-05 14:55:00,,0815.3,5.00,0.00,21.9,20.2,00.0,30.7,23.6,14.1,0000.2,0019.20,0009.92,0008.27
2023-03-05 14:56:00,,0815.4,4.99,0.00,21.9,20.1,00.0,30.7,23.5,14.0,-000.2,0019.03,0009.90,0008.23
2023-03-05 14:57:00,,0815.3,4.99,0.00,21.9,20.0,00.0,30.7,23.5,13.8,-000.5,0019.12,0009.86,0008.21
2023-03-05 14:58:00,,0815.3,5.00,0.00,21.9,20.0,00.0,30.7,23.5,13.7,-000.9,0018.53,0009.79,0008.14
2023-03-05 14:59:00,,0815.3,5.00,0.00,21.9,20.0,00.0,30.7,23.5,13.5,-000.9,0018.17,0009.66,0008.04
